Regional Weather Roundup
Issued by NWS

Home | Current Version | Previous Version | Graphics & Text | Print | Product List | Glossary On
Versions: 1 2 3 4 5 6 7 8 9 10 11 12 13 14 15 16 17 18 19 20 21 22 23 24 25 26 27 28 29 30 31 32 33 34 35 36 37 38 39 40 41 42 43 44 45 46 47 48 49 50
000
ASUS43 KDMX 260701
RWRIA

WEATHER ROUNDUP FOR IOWA
NATIONAL WEATHER SERVICE DES MOINES IA
200 AM CDT TUE SEP 26 2017

NOTE: "FAIR" INDICATES FEW OR NO CLOUDS BELOW 12,000 FEET WITH NO
SIGNIFICANT WEATHER AND/OR OBSTRUCTIONS TO VISIBILITY.

* - THESE STATIONS ARE NOT NWS STATIONS...THUS NOT UNDER NWS
QUALITY CONTROL.  THEY ALSO DO NOT REPORT WEATHER SUCH
AS PRECIPITATION OR FOG.

IAZ001>003-012>014-020>022-031>034-043>046-260800-
   NORTHWEST IOWA

CITY           SKY/WX    TMP DP  RH WIND       PRES   REMARKS
CARROLL *      CLOUDY    63  63 100 CALM      29.94S
CHEROKEE *     RAIN      57  57 100 CALM      29.98R
DENISON *      LGT RAIN  59  59 100 W3        29.98R
LE MARS *      CLOUDY    55  54  94 NW7       29.99R
ORANGE CITY *  DRIZZLE   55  55 100 NW6       29.99R
SHELDON *      LGT RAIN  54  54 100 NW7       29.97R
SIOUX CITY     LGT RAIN  55  55 100 NW12      29.99R FOG
SPENCER        CLOUDY    58  56  93 NW6       29.96R
STORM LAKE *   RAIN      57  57 100 CALM      29.96R
$$

IAZ055>058-069>071-079>083-090>094-260800-
   SOUTHWEST IOWA

CITY           SKY/WX    TMP DP  RH WIND       PRES   REMARKS
ATLANTIC *     LGT RAIN  66  66 100 SW5       29.94S
AUDUBON *      LGT RAIN  63  61  94 CALM      29.96S
CLARINDA *       N/A     66  66 100 CALM      29.95S
COUNCIL BLFS * CLOUDY    57  57 100 NW8       29.97R
CRESTON *      FOG       66  66 100 CALM      29.95F VSB 3/4
HARLAN  *      LGT RAIN  63  63 100 CALM      29.98S
LAMONI         CLOUDY    67  66  97 E5        29.95F FOG
RED OAK *      CLOUDY    64  63  94 CALM      29.94S
SHENANDOAH *   CLOUDY    64  64 100 CALM      29.95R
$$

IAZ047>049-059>061-072>074-084-260800-
   CENTRAL IOWA

CITY           SKY/WX    TMP DP  RH WIND       PRES   REMARKS
AMES           CLOUDY    66  66 100 CALM      29.94F
ANKENY *       CLOUDY    66  66 100 CALM      29.96R FOG
BOONE *        CLOUDY    66  66 100 CALM      29.94F FOG
CHARITON *     LGT RAIN  66  64  94 W10       29.98R
DES MOINES     CLOUDY    67  66  97 S6        29.95R
GRINNELL*      CLOUDY    65  63  91 CALM      29.93S
KNOXVILLE *    CLOUDY    66  64  94 W7        29.94S
MARSHALLTOWN   CLOUDY    64  64 100 W7        29.93R FOG
NEWTON *       CLOUDY    64  64 100 W13       29.96R
PELLA *        CLOUDY    67  64  92 W15       29.96R
PERRY *        LGT RAIN  65  65  99 CALM      29.95R
$$

IAZ004>006-015-016-023>025-035-036-260800-
   NORTH CENTRAL IOWA

CITY           SKY/WX    TMP DP  RH WIND       PRES   REMARKS
ALGONA *       DRIZZLE   59  59 100 CALM      29.95S
CLARION *      FOG       63  63 100 W5        29.95R VSB 3/4
ESTHERVILLE    LGT RAIN  56  56 100 N6        29.94F
FORT DODGE *   LGT RAIN  60  60 100 E3        29.95S
MASON CITY     LGT RAIN  63  63 100 NE3       29.95S VSB 1/2
FOREST CITY *  RAIN      61  61 100 CALM      29.94S
WEBSTER CITY * LGT RAIN  63  63 100 W5        29.93S
IOWA FALLS *   CLOUDY    65  64  99 SW3       29.96R
$$

IAZ007>011-017>019-026>030-037>042-050>054-066-260800-
   NORTHEAST IOWA

CITY           SKY/WX    TMP DP  RH WIND       PRES   REMARKS
CEDAR RAPIDS   MOCLDY    67  66  97 E5        29.91F
CHARLES CITY * CLOUDY    64  64 100 W3        29.94R FOG
CLINTON *      MOCLDY   N/A N/A N/A N6        29.94S
DECORAH *      CLOUDY    64  64 100 CALM      29.91S FOG
DUBUQUE        CLOUDY    66  64  93 E5        29.94F
MONTICELLO *   CLOUDY    66  64  94 E3        29.92S
OELWEIN *      LGT RAIN  66  66 100 CALM      29.93S
WATERLOO       CLOUDY    64  64 100 CALM      29.91S
$$

IAZ064-065-067-068-078-260800-
   EAST CENTRAL IOWA

CITY           SKY/WX    TMP DP  RH WIND       PRES   REMARKS
DAVENPORT      CLEAR     68  65  90 CALM      29.95S
MUSCATINE *    CLOUDY    70  66  88 SE3       29.94R
QUAD CITIES    CLOUDY    72  65  78 W7        29.93R
$$

IAZ062-063-075>077-085>089-095>099-260800-
   SOUTHEAST IOWA

CITY           SKY/WX    TMP DP  RH WIND       PRES   REMARKS
BURLINGTON     CLOUDY    71  67  87 SW5       29.93R
FAIRFIELD *    CLOUDY    68  64  88 E5        29.92S
FORT MADISON * CLOUDY    70  68  94 CALM      29.94R
KEOKUK *       CLOUDY    72  66  83 CALM      29.92S
OSKALOOSA *      N/A     66  64  94 CALM      29.92S
OTTUMWA        CLOUDY    69  64  84 E7        29.91S
WASHINGTON *   MOCLDY    68  68 100 E6        29.93S
$$

ABBREVIATIONS USED IN REMARKS
   TC - TEMPERATURES IN CELSIUS
  WCI - WIND CHILL INDEX
   HX - HEAT INDEX
  VSB - VISIBILITY
$$





USA.gov is the U.S. government's official web portal to all federal, state and local government web resources and services.